| time (UTC) | temp F | wind direction | speed MPH | gust MPH | rain 1hr in | rain 24hr in | rain mn in | humidity % | barometer mb |
| 20260901061537 | 79 | 2 | 0.0 | 1.0 | 0.00 | 0.00 | 0.00 | 66 | 1008.9 |
| 20260901061035 | 79 | 12 | 0.0 | 1.0 | 0.00 | 0.00 | 0.00 | 65 | 1008.8 |
| 20260901060535 | 78 | 153 | 0.0 | 0.0 | 0.00 | 0.00 | 0.00 | 65 | 1008.7 |
| 20260901060040 | 78 | 153 | 0.0 | 0.0 | 0.00 | 0.00 | 0.00 | 65 | 1008.7 |
| 20260901055534 | 78 | 155 | 0.0 | 0.0 | 0.00 | 0.00 | 0.00 | 64 | 1008.7 |
| 20260901055033 | 78 | 155 | 0.0 | 0.0 | 0.00 | 0.00 | 0.00 | 65 | 1008.7 |
| 20260901054532 | 78 | 154 | 0.0 | 0.0 | 0.00 | 0.00 | 0.00 | 64 | 1008.6 |
| 20260901054033 | 78 | 154 | 0.0 | 0.0 | 0.00 | 0.00 | 0.00 | 64 | 1008.6 |
| 20260901053531 | 78 | 154 | 0.0 | 0.0 | 0.00 | 0.00 | 0.00 | 64 | 1008.5 |
| 20260901053031 | 77 | 161 | 0.0 | 0.0 | 0.00 | 0.00 | 0.00 | 63 | 1008.4 |
| 20260901052531 | 77 | 161 | 0.0 | 0.0 | 0.00 | 0.00 | 0.00 | 63 | 1008.4 |
| 20260901052028 | 77 | 161 | 0.0 | 0.0 | 0.00 | 0.00 | 0.00 | 63 | 1008.3 |
| 20260901051528 | 77 | 162 | 0.0 | 0.0 | 0.00 | 0.00 | 0.00 | 63 | 1008.2 |
| 20260901051026 | 77 | 158 | 0.0 | 0.0 | 0.00 | 0.00 | 0.00 | 63 | 1008.3 |
| 20260901050528 | 77 | 158 | 0.0 | 0.0 | 0.00 | 0.00 | 0.00 | 63 | 1008.3 |
| 20260901050025 | 76 | 158 | 0.0 | 0.0 | 0.00 | 0.00 | 0.00 | 64 | 1008.2 |
| 20260901045525 | 76 | 158 | 0.0 | 0.0 | 0.00 | 0.00 | 0.00 | 65 | 1008.3 |
| 20260901045026 | 76 | 158 | 0.0 | 0.0 | 0.00 | 0.00 | 0.00 | 65 | 1008.2 |
| 20260901044526 | 76 | 158 | 0.0 | 0.0 | 0.00 | 0.00 | 0.00 | 64 | 1008.1 |
| 20260901044026 | 76 | 158 | 0.0 | 0.0 | 0.00 | 0.00 | 0.00 | 63 | 1008.3 |
| 20260901043522 | 77 | 158 | 0.0 | 0.0 | 0.00 | 0.00 | 0.00 | 63 | 1008.2 |
| 20260901043023 | 77 | 158 | 0.0 | 0.0 | 0.00 | 0.00 | 0.00 | 63 | 1008.0 |
| 20260901042524 | 77 | 158 | 0.0 | 0.0 | 0.00 | 0.00 | 0.00 | 62 | 1008.0 |
| 20260901042021 | 77 | 158 | 0.0 | 0.0 | 0.00 | 0.00 | 0.00 | 62 | 1008.1 |
| 20260901041522 | 77 | 158 | 0.0 | 0.0 | 0.00 | 0.00 | 0.00 | 62 | 1008.1 |
| 20260901041021 | 77 | 158 | 0.0 | 0.0 | 0.00 | 0.00 | 0.00 | 62 | 1008.2 |
| 20260901040522 | 77 | 158 | 0.0 | 0.0 | 0.00 | 0.00 | 0.00 | 62 | 1008.1 |
| 20260901040021 | 77 | 158 | 0.0 | 0.0 | 0.00 | 0.00 | 0.00 | 61 | 1008.2 |
| 20260901035521 | 77 | 158 | 0.0 | 0.0 | 0.00 | 0.00 | 0.00 | 62 | 1008.2 |
| 20260901035021 | 77 | 158 | 0.0 | 0.0 | 0.00 | 0.00 | 0.00 | 61 | 1008.2 |
| 20260901034522 | 77 | 158 | 0.0 | 0.0 | 0.00 | 0.00 | 0.00 | 61 | 1008.3 |
| 20260901034020 | 78 | 158 | 0.0 | 0.0 | 0.00 | 0.00 | 0.00 | 61 | 1008.1 |
| 20260901033521 | 78 | 158 | 0.0 | 0.0 | 0.00 | 0.00 | 0.00 | 61 | 1008.1 |
| 20260901033031 | 78 | 158 | 0.0 | 0.0 | 0.00 | 0.00 | 0.00 | 61 | 1008.2 |
| 20260901032520 | 78 | 158 | 0.0 | 0.0 | 0.00 | 0.00 | 0.00 | 60 | 1008.1 |
| 20260901032020 | 78 | 158 | 0.0 | 0.0 | 0.00 | 0.00 | 0.00 | 57 | 1008.2 |
| 20260901031523 | 79 | 158 | 0.0 | 0.0 | 0.00 | 0.00 | 0.00 | 57 | 1008.1 |
| 20260901031019 | 79 | 158 | 0.0 | 0.0 | 0.00 | 0.00 | 0.00 | 57 | 1008.1 |
| 20260901030520 | 79 | 158 | 0.0 | 0.0 | 0.00 | 0.00 | 0.00 | 57 | 1008.1 |
| 20260901030019 | 79 | 158 | 0.0 | 0.0 | 0.00 | 0.00 | 0.00 | 56 | 1008.0 |
| 20260901025519 | 79 | 158 | 0.0 | 0.0 | 0.00 | 0.00 | 0.00 | 55 | 1007.9 |
| 20260901025019 | 80 | 158 | 0.0 | 0.0 | 0.00 | 0.00 | 0.00 | 54 | 1007.9 |
| 20260901024519 | 80 | 158 | 0.0 | 0.0 | 0.00 | 0.00 | 0.00 | 53 | 1007.8 |
| 20260901024019 | 80 | 158 | 0.0 | 0.0 | 0.00 | 0.00 | 0.00 | 53 | 1007.8 |
| 20260901023518 | 80 | 158 | 0.0 | 0.0 | 0.00 | 0.00 | 0.00 | 52 | 1007.7 |
| 20260901023019 | 81 | 158 | 0.0 | 0.0 | 0.00 | 0.00 | 0.00 | 51 | 1007.7 |
| 20260901022518 | 81 | 158 | 0.0 | 0.0 | 0.00 | 0.00 | 0.00 | 50 | 1007.5 |
| 20260901022018 | 81 | 158 | 0.0 | 0.0 | 0.00 | 0.00 | 0.00 | 50 | 1007.5 |
| 20260901021537 | 81 | 158 | 0.0 | 0.0 | 0.00 | 0.00 | 0.00 | 49 | 1007.4 |
| 20260901021018 | 82 | 158 | 0.0 | 0.0 | 0.00 | 0.00 | 0.00 | 48 | 1007.3 |
| 20260901020520 | 82 | 158 | 0.0 | 0.0 | 0.00 | 0.00 | 0.00 | 47 | 1007.2 |
| 20260901020017 | 82 | 158 | 0.0 | 0.0 | 0.00 | 0.00 | 0.00 | 46 | 1007.3 |
| 20260901015518 | 83 | 158 | 0.0 | 0.0 | 0.00 | 0.00 | 0.00 | 46 | 1007.2 |
| 20260901015017 | 83 | 158 | 0.0 | 0.0 | 0.00 | 0.00 | 0.00 | 45 | 1007.0 |
| 20260901014517 | 83 | 158 | 0.0 | 0.0 | 0.00 | 0.00 | 0.00 | 44 | 1007.1 |
| 20260901014016 | 84 | 158 | 0.0 | 0.0 | 0.00 | 0.00 | 0.00 | 43 | 1007.0 |
| 20260901013517 | 84 | 158 | 0.0 | 0.0 | 0.00 | 0.00 | 0.00 | 43 | 1007.0 |
| 20260901013026 | 85 | 158 | 0.0 | 0.0 | 0.00 | 0.00 | 0.00 | 43 | 1007.1 |
| 20260901012516 | 85 | 158 | 0.0 | 0.0 | 0.00 | 0.00 | 0.00 | 41 | 1007.1 |
| 20260901012017 | 86 | 158 | 0.0 | 0.0 | 0.00 | 0.00 | 0.00 | 41 | 1007.1 |
| 20260901011519 | 87 | 158 | 0.0 | 0.0 | 0.00 | 0.00 | 0.00 | 40 | 1007.0 |
| 20260901011015 | 87 | 158 | 0.0 | 0.0 | 0.00 | 0.00 | 0.00 | 39 | 1006.9 |
| 20260901010514 | 89 | 158 | 0.0 | 0.0 | 0.00 | 0.00 | 0.00 | 39 | 1006.8 |
| 20260901010033 | 90 | 158 | 0.0 | 0.0 | 0.00 | 0.00 | 0.00 | 38 | 1006.8 |
| 20260901005514 | 91 | 158 | 0.0 | 0.0 | 0.00 | 0.00 | 0.00 | 37 | 1006.9 |
| 20260901005013 | 92 | 158 | 0.0 | 0.0 | 0.00 | 0.00 | 0.00 | 36 | 1006.8 |
| 20260901004515 | 94 | 158 | 0.0 | 0.0 | 0.00 | 0.00 | 0.00 | 35 | 1006.8 |
| 20260901004013 | 95 | 158 | 0.0 | 1.0 | 0.00 | 0.00 | 0.00 | 34 | 1006.9 |
| 20260901003513 | 96 | 158 | 0.0 | 1.0 | 0.00 | 0.00 | 0.00 | 34 | 1006.8 |
| 20260901003013 | 97 | 162 | 0.0 | 0.0 | 0.00 | 0.00 | 0.00 | 33 | 1006.8 |
| 20260901002513 | 98 | 162 | 0.0 | 0.0 | 0.00 | 0.00 | 0.00 | 32 | 1006.7 |
| 20260901002012 | 98 | 161 | 0.0 | 0.0 | 0.00 | 0.00 | 0.00 | 32 | 1006.8 |
| 20260901001512 | 99 | 161 | 0.0 | 0.0 | 0.00 | 0.00 | 0.00 | 31 | 1006.7 |
| 20260901001011 | 99 | 167 | 0.0 | 1.0 | 0.00 | 0.00 | 0.00 | 31 | 1006.7 |
| 20260901000511 | 100 | 167 | 0.0 | 0.0 | 0.00 | 0.00 | 0.00 | 30 | 1006.7 |
| 20260901000011 | 100 | 191 | 0.0 | 2.0 | 0.00 | 0.00 | 0.00 | 30 | 1006.6 |
| 20260831235515 | 100 | 245 | 0.0 | 3.0 | 0.00 | 0.00 | 0.00 | 30 | 1006.8 |
| 20260831235011 | 100 | 244 | 0.0 | 5.0 | 0.00 | 0.00 | 0.00 | 30 | 1006.8 |
| 20260831234511 | 100 | 184 | 1.0 | 5.0 | 0.00 | 0.00 | 0.00 | 30 | 1006.8 |
| 20260831234011 | 101 | 178 | 1.0 | 3.0 | 0.00 | 0.00 | 0.00 | 31 | 1006.8 |
| 20260831233510 | 100 | 204 | 0.0 | 2.0 | 0.00 | 0.00 | 0.00 | 31 | 1006.8 |
| 20260831233012 | 100 | 157 | 0.0 | 4.0 | 0.00 | 0.00 | 0.00 | 31 | 1006.9 |
| 20260831232512 | 101 | 157 | 0.0 | 5.0 | 0.00 | 0.00 | 0.00 | 29 | 1006.8 |
| 20260831232010 | 103 | 229 | 1.0 | 3.0 | 0.00 | 0.00 | 0.00 | 29 | 1006.8 |
| 20260831231509 | 103 | 146 | 0.0 | 3.0 | 0.00 | 0.00 | 0.00 | 30 | 1006.7 |
| 20260831231009 | 102 | 280 | 0.0 | 4.0 | 0.00 | 0.00 | 0.00 | 31 | 1006.7 |
| 20260831230510 | 102 | 191 | 0.0 | 5.0 | 0.00 | 0.00 | 0.00 | 31 | 1006.7 |
| 20260831230009 | 103 | 243 | 1.0 | 5.0 | 0.00 | 0.00 | 0.00 | 30 | 1006.8 |
| 20260831225507 | 103 | 248 | 0.0 | 5.0 | 0.00 | 0.00 | 0.00 | 30 | 1006.9 |
| 20260831225006 | 103 | 11 | 0.0 | 5.0 | 0.00 | 0.00 | 0.00 | 30 | 1006.9 |
| 20260831224506 | 103 | 320 | 0.0 | 5.0 | 0.00 | 0.00 | 0.00 | 31 | 1006.9 |
| 20260831224005 | 102 | 191 | 1.0 | 6.0 | 0.00 | 0.00 | 0.00 | 31 | 1006.9 |
| 20260831223505 | 103 | 278 | 2.0 | 8.0 | 0.00 | 0.00 | 0.00 | 30 | 1007.0 |
| 20260831223013 | 103 | 248 | 1.0 | 6.0 | 0.00 | 0.00 | 0.00 | 30 | 1007.0 |
| 20260831222504 | 103 | 255 | 1.0 | 5.0 | 0.00 | 0.00 | 0.00 | 30 | 1007.0 |
| 20260831222002 | 103 | 259 | 2.0 | 5.0 | 0.00 | 0.00 | 0.00 | 30 | 1007.1 |
| 20260831221502 | 103 | 347 | 0.0 | 4.0 | 0.00 | 0.00 | 0.00 | 30 | 1007.1 |
| 20260831221001 | 103 | 181 | 0.0 | 5.0 | 0.00 | 0.00 | 0.00 | 31 | 1007.1 |
| 20260831220600 | 102 | 179 | 1.0 | 6.0 | 0.00 | 0.00 | 0.00 | 31 | 1007.1 |
| 20260831220501 | 102 | 270 | 2.0 | 6.0 | 0.00 | 0.00 | 0.00 | 32 | 1007.0 |
| 20260831215559 | 102 | 53 | 0.0 | 6.0 | 0.00 | 0.00 | 0.00 | 31 | 1007.1 |
| 20260831215058 | 101 | 229 | 1.0 | 4.0 | 0.00 | 0.00 | 0.00 | 33 | 1007.2 |
| 20260831214557 | 100 | 269 | 0.0 | 5.0 | 0.00 | 0.00 | 0.00 | 35 | 1007.4 |
| 20260831214057 | 99 | 202 | 1.0 | 5.0 | 0.00 | 0.00 | 0.00 | 35 | 1007.3 |
| 20260831213558 | 99 | 170 | 0.0 | 6.0 | 0.00 | 0.00 | 0.00 | 35 | 1007.3 |
| 20260831213058 | 99 | 178 | 2.0 | 6.0 | 0.00 | 0.00 | 0.00 | 33 | 1007.5 |
| 20260831212556 | 101 | 230 | 2.0 | 6.0 | 0.00 | 0.00 | 0.00 | 33 | 1007.5 |
| 20260831212056 | 102 | 202 | 2.0 | 6.0 | 0.00 | 0.00 | 0.00 | 34 | 1007.5 |
| 20260831211608 | 101 | 59 | 1.0 | 4.0 | 0.00 | 0.00 | 0.00 | 34 | 1007.5 |
| 20260831211055 | 100 | 247 | 0.0 | 5.0 | 0.00 | 0.00 | 0.00 | 34 | 1007.6 |
| 20260831210554 | 100 | 224 | 1.0 | 6.0 | 0.00 | 0.00 | 0.00 | 36 | 1007.7 |
| 20260831210054 | 100 | 167 | 0.0 | 3.0 | 0.00 | 0.00 | 0.00 | 34 | 1007.7 |
| 20260831205553 | 101 | 286 | 0.0 | 4.0 | 0.00 | 0.00 | 0.00 | 32 | 1007.8 |
| 20260831205054 | 101 | 340 | 0.0 | 4.0 | 0.00 | 0.00 | 0.00 | 33 | 1008.0 |
| 20260831204553 | 101 | 343 | 0.0 | 6.0 | 0.00 | 0.00 | 0.00 | 32 | 1008.0 |
| 20260831204053 | 102 | 234 | 1.0 | 11.0 | 0.00 | 0.00 | 0.00 | 33 | 1008.0 |
| 20260831203552 | 101 | 181 | 2.0 | 11.0 | 0.00 | 0.00 | 0.00 | 33 | 1008.2 |
| 20260831203056 | 101 | 171 | 1.0 | 6.0 | 0.00 | 0.00 | 0.00 | 34 | 1008.1 |
| 20260831202552 | 101 | 148 | 1.0 | 9.0 | 0.00 | 0.00 | 0.00 | 34 | 1008.3 |
| 20260831202052 | 101 | 248 | 2.0 | 9.0 | 0.00 | 0.00 | 0.00 | 34 | 1008.4 |
| 20260831201558 | 101 | 251 | 3.0 | 9.0 | 0.00 | 0.00 | 0.00 | 33 | 1008.5 |
| 20260831201052 | 101 | 349 | 1.0 | 3.0 | 0.00 | 0.00 | 0.00 | 33 | 1008.4 |
| 20260831200551 | 101 | 154 | 0.0 | 6.0 | 0.00 | 0.00 | 0.00 | 34 | 1008.5 |
| 20260831200050 | 101 | 224 | 2.0 | 6.0 | 0.00 | 0.00 | 0.00 | 33 | 1008.5 |
| 20260831195649 | 101 | 210 | 2.0 | 5.0 | 0.00 | 0.00 | 0.00 | 33 | 1008.6 |
| 20260831195049 | 100 | 311 | 1.0 | 4.0 | 0.00 | 0.00 | 0.00 | 35 | 1008.7 |
| 20260831194634 | 101 | 224 | 1.0 | 5.0 | 0.00 | 0.00 | 0.00 | 34 | 1008.8 |
| 20260831194047 | 101 | 283 | 0.0 | 11.0 | 0.00 | 0.00 | 0.00 | 36 | 1008.9 |
| 20260831193546 | 100 | 236 | 3.0 | 11.0 | 0.00 | 0.00 | 0.00 | 36 | 1008.9 |
| 20260831193047 | 100 | 167 | 1.0 | 6.0 | 0.00 | 0.00 | 0.00 | 36 | 1009.1 |
| 20260831192545 | 100 | 213 | 0.0 | 6.0 | 0.00 | 0.00 | 0.00 | 37 | 1009.1 |
| 20260831192045 | 100 | 250 | 2.0 | 6.0 | 0.00 | 0.00 | 0.00 | 37 | 1009.3 |
| 20260831191543 | 99 | 244 | 1.0 | 6.0 | 0.00 | 0.00 | 0.00 | 37 | 1009.3 |
| 20260831191043 | 99 | 251 | 2.0 | 6.0 | 0.00 | 0.00 | 0.00 | 39 | 1009.2 |
| 20260831190546 | 98 | 232 | 2.0 | 5.0 | 0.00 | 0.00 | 0.00 | 38 | 1009.3 |
| 20260831190047 | 98 | 224 | 0.0 | 3.0 | 0.00 | 0.00 | 0.00 | 39 | 1009.3 |
| 20260831185542 | 98 | 171 | 1.0 | 3.0 | 0.00 | 0.00 | 0.00 | 38 | 1009.3 |
| 20260831185042 | 99 | 219 | 0.0 | 7.0 | 0.00 | 0.00 | 0.00 | 37 | 1009.3 |
| 20260831184552 | 99 | 308 | 1.0 | 7.0 | 0.00 | 0.00 | 0.00 | 39 | 1009.3 |
| 20260831184041 | 99 | 264 | 1.0 | 8.0 | 0.00 | 0.00 | 0.00 | 38 | 1009.6 |
| 20260831183540 | 98 | 219 | 2.0 | 8.0 | 0.00 | 0.00 | 0.00 | 39 | 1009.6 |
| 20260831183040 | 98 | 94 | 0.0 | 8.0 | 0.00 | 0.00 | 0.00 | 38 | 1009.6 |
| 20260831182540 | 99 | 283 | 1.0 | 8.0 | 0.00 | 0.00 | 0.00 | 39 | 1009.8 |
| 20260831182040 | 99 | 222 | 2.0 | 8.0 | 0.00 | 0.00 | 0.00 | 40 | 1009.8 |
| 20260831181544 | 98 | 57 | 0.0 | 3.0 | 0.00 | 0.00 | 0.00 | 39 | 1009.7 |
| 20260831181037 | 97 | 348 | 0.0 | 7.0 | 0.00 | 0.00 | 0.00 | 40 | 1010.0 |
| 20260831180536 | 97 | 197 | 1.0 | 9.0 | 0.00 | 0.00 | 0.00 | 41 | 1010.2 |
| 20260831180036 | 97 | 195 | 4.0 | 9.0 | 0.00 | 0.00 | 0.00 | 40 | 1010.2 |
| 20260831175540 | 97 | 169 | 3.0 | 10.0 | 0.00 | 0.00 | 0.00 | 42 | 1010.3 |
| 20260831175036 | 97 | 163 | 2.0 | 10.0 | 0.00 | 0.00 | 0.00 | 40 | 1010.3 |
| 20260831174541 | 97 | 234 | 2.0 | 10.0 | 0.00 | 0.00 | 0.00 | 41 | 1010.5 |
| 20260831174035 | 97 | 200 | 3.0 | 8.0 | 0.00 | 0.00 | 0.00 | 40 | 1010.5 |
| 20260831173534 | 97 | 217 | 1.0 | 7.0 | 0.00 | 0.00 | 0.00 | 43 | 1010.6 |
| 20260831173033 | 97 | 238 | 2.0 | 7.0 | 0.00 | 0.00 | 0.00 | 42 | 1010.6 |
| 20260831172532 | 96 | 235 | 0.0 | 5.0 | 0.00 | 0.00 | 0.00 | 44 | 1010.5 |
| 20260831172032 | 95 | 233 | 2.0 | 7.0 | 0.00 | 0.00 | 0.00 | 44 | 1010.6 |
| 20260831171534 | 95 | 232 | 2.0 | 7.0 | 0.00 | 0.00 | 0.00 | 44 | 1010.8 |
| 20260831171030 | 95 | 6 | 1.0 | 8.0 | 0.00 | 0.00 | 0.00 | 45 | 1010.8 |
| 20260831170529 | 95 | 214 | 3.0 | 8.0 | 0.00 | 0.00 | 0.00 | 45 | 1010.8 |
| 20260831170026 | 95 | 330 | 1.0 | 6.0 | 0.00 | 0.00 | 0.00 | 47 | 1010.9 |
| 20260831165525 | 94 | 134 | 2.0 | 6.0 | 0.00 | 0.00 | 0.00 | 46 | 1010.9 |
| 20260831165024 | 94 | 203 | 2.0 | 6.0 | 0.00 | 0.00 | 0.00 | 47 | 1011.0 |
| 20260831164522 | 94 | 278 | 0.0 | 4.0 | 0.00 | 0.00 | 0.00 | 48 | 1010.9 |
| 20260831164022 | 93 | 210 | 0.0 | 4.0 | 0.00 | 0.00 | 0.00 | 46 | 1010.9 |
| 20260831163520 | 93 | 240 | 1.0 | 7.0 | 0.00 | 0.00 | 0.00 | 48 | 1011.0 |
| 20260831163028 | 92 | 231 | 2.0 | 8.0 | 0.00 | 0.00 | 0.00 | 47 | 1011.0 |
| 20260831162519 | 92 | 325 | 2.0 | 8.0 | 0.00 | 0.00 | 0.00 | 48 | 1010.9 |
| 20260831162016 | 92 | 308 | 2.0 | 8.0 | 0.00 | 0.00 | 0.00 | 50 | 1010.8 |
| 20260831161514 | 91 | 244 | 2.0 | 8.0 | 0.00 | 0.00 | 0.00 | 50 | 1010.9 |
| 20260831161013 | 91 | 314 | 2.0 | 8.0 | 0.00 | 0.00 | 0.00 | 50 | 1011.0 |
| 20260831160512 | 90 | 236 | 2.0 | 7.0 | 0.00 | 0.00 | 0.00 | 50 | 1011.0 |
| 20260831160011 | 90 | 224 | 1.0 | 7.0 | 0.00 | 0.00 | 0.00 | 51 | 1011.0 |
| 20260831155510 | 89 | 113 | 2.0 | 7.0 | 0.00 | 0.00 | 0.00 | 53 | 1011.0 |
| 20260831155011 | 89 | 210 | 3.0 | 7.0 | 0.00 | 0.00 | 0.00 | 52 | 1011.1 |
| 20260831154508 | 89 | 232 | 0.0 | 7.0 | 0.00 | 0.00 | 0.00 | 55 | 1011.1 |
| 20260831154007 | 88 | 197 | 0.0 | 7.0 | 0.00 | 0.00 | 0.00 | 56 | 1011.0 |
| 20260831153505 | 88 | 24 | 1.0 | 6.0 | 0.00 | 0.00 | 0.00 | 58 | 1011.0 |
| 20260831153007 | 87 | 218 | 2.0 | 6.0 | 0.00 | 0.00 | 0.00 | 58 | 1011.0 |
| 20260831152503 | 87 | 253 | 1.0 | 11.0 | 0.00 | 0.00 | 0.00 | 58 | 1010.9 |
| 20260831152101 | 86 | 287 | 2.0 | 11.0 | 0.00 | 0.00 | 0.00 | 61 | 1010.9 |
| 20260831151603 | 86 | 180 | 1.0 | 7.0 | 0.00 | 0.00 | 0.00 | 60 | 1010.9 |
| 20260831151059 | 86 | 278 | 2.0 | 7.0 | 0.00 | 0.00 | 0.00 | 62 | 1010.9 |
| 20260831150601 | 85 | 236 | 2.0 | 8.0 | 0.00 | 0.00 | 0.00 | 64 | 1010.9 |
| 20260831150057 | 84 | 184 | 3.0 | 8.0 | 0.00 | 0.00 | 0.00 | 65 | 1010.7 |
| 20260831145558 | 84 | 297 | 2.0 | 6.0 | 0.00 | 0.00 | 0.00 | 65 | 1010.8 |
| 20260831145057 | 84 | 319 | 2.0 | 9.0 | 0.00 | 0.00 | 0.00 | 68 | 1010.8 |
| 20260831144630 | 83 | 236 | 4.0 | 9.0 | 0.00 | 0.00 | 0.00 | 67 | 1010.9 |
| 20260831144053 | 83 | 238 | 2.0 | 9.0 | 0.00 | 0.00 | 0.00 | 68 | 1010.8 |
| 20260831143554 | 83 | 241 | 2.0 | 6.0 | 0.00 | 0.00 | 0.00 | 69 | 1010.8 |
| 20260831143052 | 83 | 262 | 2.0 | 6.0 | 0.00 | 0.00 | 0.00 | 69 | 1010.8 |
| 20260831142553 | 83 | 307 | 2.0 | 7.0 | 0.00 | 0.00 | 0.00 | 69 | 1010.9 |
| 20260831142049 | 82 | 314 | 1.0 | 8.0 | 0.00 | 0.00 | 0.00 | 70 | 1010.8 |
| 20260831141547 | 82 | 191 | 2.0 | 10.0 | 0.00 | 0.00 | 0.00 | 70 | 1010.7 |
| 20260831141047 | 82 | 262 | 3.0 | 8.0 | 0.00 | 0.00 | 0.00 | 71 | 1010.6 |
| 20260831140546 | 81 | 301 | 2.0 | 8.0 | 0.00 | 0.00 | 0.00 | 72 | 1010.7 |
| 20260831140046 | 81 | 326 | 3.0 | 8.0 | 0.00 | 0.00 | 0.00 | 72 | 1010.7 |
| 20260831135546 | 80 | 340 | 1.0 | 8.0 | 0.00 | 0.00 | 0.00 | 74 | 1010.6 |
| 20260831135045 | 80 | 249 | 2.0 | 6.0 | 0.00 | 0.00 | 0.00 | 75 | 1010.5 |
| 20260831134545 | 80 | 259 | 1.0 | 8.0 | 0.00 | 0.00 | 0.00 | 76 | 1010.4 |
| 20260831134042 | 79 | 268 | 1.0 | 8.0 | 0.00 | 0.00 | 0.00 | 77 | 1010.4 |
| 20260831133542 | 79 | 221 | 1.0 | 6.0 | 0.00 | 0.00 | 0.00 | 78 | 1010.3 |
| 20260831133048 | 78 | 314 | 1.0 | 6.0 | 0.00 | 0.00 | 0.00 | 79 | 1010.4 |
| 20260831132542 | 78 | 160 | 1.0 | 6.0 | 0.00 | 0.00 | 0.00 | 81 | 1010.3 |
| 20260831132041 | 77 | 242 | 0.0 | 4.0 | 0.00 | 0.00 | 0.00 | 81 | 1010.1 |
| 20260831131541 | 77 | 286 | 1.0 | 4.0 | 0.00 | 0.00 | 0.00 | 81 | 1010.0 |
| 20260831131040 | 77 | 201 | 0.0 | 4.0 | 0.00 | 0.00 | 0.00 | 81 | 1010.1 |
| 20260831130540 | 77 | 245 | 0.0 | 2.0 | 0.00 | 0.00 | 0.00 | 81 | 1010.1 |
| 20260831130039 | 77 | 226 | 0.0 | 4.0 | 0.00 | 0.00 | 0.00 | 81 | 1009.9 |
| 20260831125539 | 77 | 226 | 0.0 | 4.0 | 0.00 | 0.00 | 0.00 | 81 | 1009.9 |
| 20260831125041 | 77 | 273 | 0.0 | 3.0 | 0.00 | 0.00 | 0.00 | 81 | 1009.9 |
| 20260831124539 | 77 | 243 | 0.0 | 3.0 | 0.00 | 0.00 | 0.00 | 81 | 1009.9 |
| 20260831124038 | 77 | 222 | 0.0 | 4.0 | 0.00 | 0.00 | 0.00 | 81 | 1009.8 |
| 20260831123537 | 77 | 228 | 0.0 | 4.0 | 0.00 | 0.00 | 0.00 | 81 | 1009.7 |
| 20260831123038 | 76 | 229 | 1.0 | 3.0 | 0.00 | 0.00 | 0.00 | 81 | 1009.6 |
| 20260831122536 | 76 | 193 | 0.0 | 3.0 | 0.00 | 0.00 | 0.00 | 80 | 1009.5 |
| 20260831122037 | 77 | 231 | 0.0 | 2.0 | 0.00 | 0.00 | 0.00 | 80 | 1009.2 |
| 20260831121543 | 77 | 226 | 0.0 | 2.0 | 0.00 | 0.00 | 0.00 | 79 | 1009.3 |
| 20260831121034 | 77 | 197 | 0.0 | 5.0 | 0.00 | 0.00 | 0.00 | 79 | 1009.1 |
| 20260831120532 | 77 | 198 | 1.0 | 5.0 | 0.00 | 0.00 | 0.00 | 79 | 1009.1 |
| 20260831120038 | 77 | 250 | 0.0 | 3.0 | 0.00 | 0.00 | 0.00 | 79 | 1009.0 |
| 20260831115534 | 77 | 198 | 0.0 | 3.0 | 0.00 | 0.00 | 0.00 | 79 | 1008.9 |
| 20260831115036 | 77 | 332 | 0.0 | 3.0 | 0.00 | 0.00 | 0.00 | 79 | 1008.8 |
| 20260831114547 | 77 | 227 | 0.0 | 3.0 | 0.00 | 0.00 | 0.00 | 78 | 1008.8 |
| 20260831114032 | 77 | 229 | 0.0 | 3.0 | 0.00 | 0.00 | 0.00 | 78 | 1008.8 |
| 20260831113532 | 77 | 200 | 0.0 | 4.0 | 0.00 | 0.00 | 0.00 | 78 | 1008.8 |
| 20260831113030 | 77 | 212 | 1.0 | 5.0 | 0.00 | 0.00 | 0.00 | 78 | 1008.8 |
| 20260831112533 | 77 | 210 | 1.0 | 5.0 | 0.00 | 0.00 | 0.00 | 78 | 1008.7 |
| 20260831112030 | 77 | 233 | 0.0 | 3.0 | 0.00 | 0.00 | 0.00 | 78 | 1008.7 |
| 20260831111529 | 76 | 230 | 0.0 | 2.0 | 0.00 | 0.00 | 0.00 | 78 | 1008.7 |
| 20260831111031 | 77 | 218 | 0.0 | 2.0 | 0.00 | 0.00 | 0.00 | 78 | 1008.7 |
| 20260831110529 | 77 | 218 | 0.0 | 2.0 | 0.00 | 0.00 | 0.00 | 78 | 1008.8 |
| 20260831110029 | 77 | 199 | 0.0 | 2.0 | 0.00 | 0.00 | 0.00 | 77 | 1008.7 |
| 20260831105530 | 77 | 230 | 0.0 | 2.0 | 0.00 | 0.00 | 0.00 | 77 | 1008.6 |
| 20260831105027 | 77 | 230 | 0.0 | 2.0 | 0.00 | 0.00 | 0.00 | 77 | 1008.6 |
| 20260831104533 | 77 | 238 | 0.0 | 3.0 | 0.00 | 0.00 | 0.00 | 76 | 1008.6 |
| 20260831104025 | 77 | 227 | 0.0 | 3.0 | 0.00 | 0.00 | 0.00 | 76 | 1008.5 |
| 20260831103525 | 78 | 210 | 0.0 | 3.0 | 0.00 | 0.00 | 0.00 | 76 | 1008.6 |
| 20260831103025 | 78 | 174 | 0.0 | 3.0 | 0.00 | 0.00 | 0.00 | 76 | 1008.6 |
| 20260831102528 | 78 | 215 | 0.0 | 3.0 | 0.00 | 0.00 | 0.00 | 76 | 1008.6 |
| 20260831102024 | 78 | 198 | 0.0 | 3.0 | 0.00 | 0.00 | 0.00 | 76 | 1008.6 |
| 20260831101523 | 78 | 236 | 0.0 | 2.0 | 0.00 | 0.00 | 0.00 | 75 | 1008.6 |
| 20260831101023 | 78 | 203 | 0.0 | 4.0 | 0.00 | 0.00 | 0.00 | 75 | 1008.5 |
| 20260831100523 | 78 | 203 | 0.0 | 6.0 | 0.00 | 0.00 | 0.00 | 75 | 1008.5 |
| 20260831100023 | 79 | 195 | 0.0 | 6.0 | 0.00 | 0.00 | 0.00 | 74 | 1008.5 |
| 20260831095524 | 79 | 183 | 0.0 | 2.0 | 0.00 | 0.00 | 0.00 | 74 | 1008.5 |
| 20260831095021 | 79 | 250 | 0.0 | 3.0 | 0.00 | 0.00 | 0.00 | 73 | 1008.5 |
| 20260831094521 | 79 | 250 | 0.0 | 3.0 | 0.00 | 0.00 | 0.00 | 73 | 1008.5 |
| 20260831094021 | 80 | 232 | 0.0 | 5.0 | 0.00 | 0.00 | 0.00 | 72 | 1008.3 |
| 20260831093526 | 80 | 263 | 1.0 | 5.0 | 0.00 | 0.00 | 0.00 | 72 | 1008.4 |
| 20260831093022 | 80 | 237 | 1.0 | 6.0 | 0.00 | 0.00 | 0.00 | 72 | 1008.4 |
| 20260831092522 | 80 | 193 | 2.0 | 6.0 | 0.00 | 0.00 | 0.00 | 72 | 1008.3 |
| 20260831092023 | 80 | 187 | 0.0 | 7.0 | 0.00 | 0.00 | 0.00 | 71 | 1008.2 |
| 20260831091519 | 80 | 231 | 2.0 | 7.0 | 0.00 | 0.00 | 0.00 | 71 | 1008.2 |
| 20260831091022 | 80 | 250 | 1.0 | 5.0 | 0.00 | 0.00 | 0.00 | 71 | 1008.2 |
| 20260831090518 | 80 | 236 | 0.0 | 3.0 | 0.00 | 0.00 | 0.00 | 71 | 1008.3 |
| 20260831090018 | 81 | 186 | 0.0 | 5.0 | 0.00 | 0.00 | 0.00 | 70 | 1008.1 |
| 20260831085519 | 81 | 257 | 0.0 | 6.0 | 0.00 | 0.00 | 0.00 | 70 | 1008.2 |
| 20260831085118 | 81 | 232 | 1.0 | 6.0 | 0.00 | 0.00 | 0.00 | 70 | 1008.1 |
| 20260831084517 | 81 | 220 | 2.0 | 6.0 | 0.00 | 0.00 | 0.00 | 69 | 1008.2 |
| 20260831084016 | 81 | 176 | 1.0 | 9.0 | 0.00 | 0.00 | 0.00 | 69 | 1008.2 |
| 20260831083516 | 81 | 182 | 2.0 | 9.0 | 0.00 | 0.00 | 0.00 | 69 | 1008.1 |
| 20260831083016 | 81 | 266 | 1.0 | 6.0 | 0.00 | 0.00 | 0.00 | 68 | 1008.1 |
| 20260831082514 | 81 | 250 | 2.0 | 6.0 | 0.00 | 0.00 | 0.00 | 68 | 1008.0 |
| 20260831082012 | 81 | 266 | 2.0 | 6.0 | 0.00 | 0.00 | 0.00 | 68 | 1008.0 |
| 20260831081512 | 81 | 228 | 2.0 | 5.0 | 0.00 | 0.00 | 0.00 | 67 | 1008.1 |
| 20260831081013 | 81 | 179 | 1.0 | 7.0 | 0.00 | 0.00 | 0.00 | 67 | 1008.1 |
| 20260831080509 | 81 | 276 | 2.0 | 6.0 | 0.00 | 0.00 | 0.00 | 67 | 1008.0 |
| 20260831080012 | 81 | 239 | 3.0 | 7.0 | 0.00 | 0.00 | 0.00 | 66 | 1008.0 |
| 20260831075513 | 81 | 314 | 2.0 | 7.0 | 0.00 | 0.00 | 0.00 | 67 | 1008.0 |
| 20260831075008 | 81 | 254 | 1.0 | 7.0 | 0.00 | 0.00 | 0.00 | 66 | 1008.0 |
| 20260831074508 | 81 | 240 | 1.0 | 7.0 | 0.00 | 0.00 | 0.00 | 65 | 1008.0 |
| 20260831074009 | 81 | 215 | 2.0 | 5.0 | 0.00 | 0.00 | 0.00 | 65 | 1008.0 |
| 20260831073508 | 81 | 220 | 2.0 | 5.0 | 0.00 | 0.00 | 0.00 | 64 | 1008.0 |
| 20260831073008 | 81 | 274 | 1.0 | 4.0 | 0.00 | 0.00 | 0.00 | 64 | 1008.0 |
| 20260831072510 | 81 | 204 | 1.0 | 4.0 | 0.00 | 0.00 | 0.00 | 64 | 1007.9 |
| 20260831072006 | 82 | 182 | 1.0 | 4.0 | 0.00 | 0.00 | 0.00 | 63 | 1008.0 |
| 20260831071515 | 82 | 245 | 2.0 | 6.0 | 0.00 | 0.00 | 0.00 | 62 | 1008.0 |
| 20260831071006 | 82 | 235 | 2.0 | 8.0 | 0.00 | 0.00 | 0.00 | 62 | 1008.0 |
| 20260831070506 | 82 | 191 | 3.0 | 8.0 | 0.00 | 0.00 | 0.00 | 61 | 1008.1 |
| 20260831070006 | 82 | 256 | 3.0 | 8.0 | 0.00 | 0.00 | 0.00 | 61 | 1008.2 |
| 20260831065506 | 82 | 229 | 2.0 | 6.0 | 0.00 | 0.00 | 0.00 | 60 | 1008.2 |
| 20260831065005 | 82 | 251 | 1.0 | 8.0 | 0.00 | 0.00 | 0.00 | 60 | 1008.2 |
| 20260831064605 | 82 | 204 | 2.0 | 7.0 | 0.00 | 0.00 | 0.00 | 59 | 1008.1 |
| 20260831064003 | 82 | 236 | 2.0 | 6.0 | 0.00 | 0.00 | 0.00 | 59 | 1008.1 |
| 20260831063502 | 81 | 210 | 1.0 | 6.0 | 0.00 | 0.00 | 0.00 | 59 | 1008.1 |
| 20260831063001 | 81 | 174 | 1.0 | 6.0 | 0.00 | 0.00 | 0.00 | 59 | 1008.1 |
| 20260831062602 | 80 | 153 | 1.0 | 6.0 | 0.00 | 0.00 | 0.00 | 60 | 1008.1 |
| 20260831062059 | 79 | 208 | 1.0 | 4.0 | 0.00 | 0.00 | 0.00 | 61 | 1008.1 |